#timestamp,LO_Frequency,Hit,StdDev 
1647727215.4,286047001.1,N
1647727235.2,286046996.5,N
1647727255.0,286046997.9,N
1647727255.9,286046997.9,N
1647727275.8,286046996.2,N
1647727295.6,286046993.7,N
1647727315.5,286046995.8,N
1647727335.3,286046997.8,N
1647727355.1,286046997.9,N
1647727375.9,286046997.4,N
1647727395.7,286046997.1,N
1647727415.5,286046999.3,N
1647727435.4,286046998.3,N
1647727455.2,286046999.1,N
1647727475.1,286046999.2,N
1647727476.0,286046999.2,N
1647727495.8,286046997.7,N
1647727515.6,286046997.0,N
1647727535.5,286046998.8,N
1647727555.3,286046997.4,N
1647727575.2,286046999.1,N
1647727595.9,286046997.4,N
1647727615.7,286046997.0,N
1647727635.6,286046997.6,N
1647727655.4,286046997.6,N
1647727675.2,286046997.5,N
1647727695.1,286046997.3,N
1647727696.0,286046997.3,N
1647727715.8,286046995.3,Y
1647727735.7,286046999.2,P
1647727755.5,286046998.6,N
1647727775.3,286047000.4,N
1647727795.2,286047002.4,N
1647727815.0,286046998.3,N
1647727815.9,286046998.3,N
1647727835.7,286047000.7,N
1647727855.6,286046998.6,N
1647727875.4,286046997.0,N
1647727895.3,286046999.6,N
1647727915.1,286047000.8,N
1647727916.0,286047000.8,N
1647727935.8,286047001.0,N
1647727955.7,286046998.3,N
1647727975.5,286046999.2,N
1647727995.4,286046999.5,N
1647728015.2,286046997.2,N
1647728035.0,286046995.6,Y
1647728035.9,286046995.6,P
1647728055.8,286046996.7,N
1647728075.6,286046999.1,N
1647728095.4,286046998.9,N
1647728115.3,286046998.3,N
1647728135.1,286046998.1,N
1647728155.9,286047000.7,N
1647728175.7,286046998.1,N
1647728195.5,286046996.5,N
1647728215.4,286046998.1,N
1647728235.2,286047000.6,N
1647728255.0,286047001.7,N
1647728255.9,286047001.7,N
1647728275.8,286047000.2,N
1647728295.6,286047001.7,N
1647728315.5,286047000.3,N
1647728335.3,286047001.0,N
1647728355.1,286047000.1,N
1647728375.9,286047000.6,N
1647728395.7,286046999.9,N
1647728415.5,286046999.8,N
1647728435.4,286047000.0,N
1647728455.2,286047001.2,N
1647728475.1,286046998.2,N
1647728476.0,286046998.2,N
1647728495.8,286047001.2,N
1647728515.6,286047000.0,N
1647728535.5,286047000.4,N
1647728555.3,286047001.9,N
1647728575.2,286046999.7,N
1647728595.9,286046999.7,N
1647728615.7,286047002.1,N
1647728635.6,286047002.1,N
1647728655.4,286047002.6,N
1647728675.2,286047000.4,N
1647728695.1,286047000.3,N
1647728696.0,286047000.3,N
1647728715.8,286047002.3,N
1647728735.7,286047000.7,N
1647728755.5,286047000.4,N
1647728775.3,286047001.2,N
1647728795.2,286046998.6,N
1647728815.0,286047001.0,N
1647728815.9,286047001.0,N
1647728835.7,286047001.1,N
1647728855.6,286047001.2,N
1647728875.4,286047000.8,N
1647728895.3,286047001.0,N
1647728915.1,286047002.4,N
1647728916.0,286047002.4,N
1647728935.8,286046999.7,N
1647728955.7,286047002.2,N
1647728975.5,286047002.5,N
1647728995.4,286047002.0,N
1647729015.2,286047001.5,N
1647729035.0,286047004.4,Y
1647729035.9,286047004.4,P
1647729055.8,286047001.9,N
1647729075.6,286047001.6,N
1647729095.4,286047000.5,N
1647729115.3,286047002.7,N
1647729135.1,286047002.4,N
1647729155.9,286046999.7,N
1647729175.7,286047000.7,N
1647729195.5,286047002.6,N
1647729215.4,286047003.5,N
1647729235.2,286047003.8,N
1647729255.0,286047002.2,N
1647729255.9,286047002.2,N
1647729275.8,286046999.8,N
1647729295.6,286047000.5,N
1647729315.5,286047000.8,N
1647729335.3,286047001.5,N
1647729355.1,286047001.4,N
1647729375.9,286047004.8,Y
1647729395.7,286047001.8,P
1647729415.6,286047005.5,P
1647729435.4,286047001.5,N
1647729455.2,286047001.4,N
1647729475.1,286047003.6,N
1647729476.0,286047003.6,N
1647729495.8,286047004.0,N
1647729515.6,286047001.5,N
1647729535.5,286047001.3,N
1647729555.3,286047001.7,N
1647729575.2,286047003.6,N
1647729595.9,286047004.4,Y
1647729615.7,286047000.4,P
1647729635.6,286046998.5,N
1647729655.4,286046999.9,N
1647729675.3,286047002.0,N
1647729695.1,286047002.6,N
1647729696.0,286047002.6,N
1647729715.8,286047002.4,N
1647729735.7,286047002.1,N
1647729755.5,286047001.7,N
1647729775.3,286047001.8,N
1647729795.2,286047002.8,N
1647729815.0,286047002.3,N
1647729815.9,286047002.3,N
1647729835.8,286047002.3,N
1647729855.6,286047002.4,N
1647729875.4,286047001.8,N
1647729895.3,286047001.4,N
1647729915.1,286047001.4,N
1647729935.8,286046999.9,N
1647729955.7,286047002.8,N
1647729975.5,286047002.4,N
1647729995.4,286047002.2,N
1647730015.2,286047001.8,N
1647730035.0,286047002.5,N
1647730035.9,286047002.5,N
1647730055.8,286047002.1,N
1647730075.6,286047004.2,Y
1647730095.5,286047000.0,P
1647730115.3,286047000.2,N
1647730135.1,286046999.9,N
1647730155.9,286047000.5,N
1647730175.7,286046998.4,N
1647730195.5,286046998.7,N
1647730215.4,286047001.8,N
1647730235.2,286047004.1,Y
1647730255.1,286047002.6,P
1647730256.0,286047002.6,N
1647730275.8,286047000.4,N
1647730295.6,286047002.1,N
1647730315.5,286047002.3,N
1647730335.3,286047002.7,N
1647730355.2,286047002.0,N
1647730375.9,286047000.9,N
1647730395.7,286046999.7,N
1647730415.6,286047002.7,N
1647730435.4,286047004.3,Y
1647730455.3,286046999.7,P
1647730475.1,286047002.4,N
1647730476.0,286047002.4,N
1647730495.8,286047001.8,N
1647730515.7,286047002.6,N
1647730535.5,286046999.7,N
1647730555.3,286046999.9,N
1647730575.2,286047000.6,N
1647730595.0,286046998.1,N
1647730595.9,286046998.1,N
1647730615.8,286046998.8,N
1647730635.6,286046996.6,N
1647730655.4,286046999.3,N
1647730675.3,286046996.6,N
1647730695.1,286046999.5,N
1647730715.9,286046997.0,N
1647730735.7,286046998.4,N
1647730755.5,286046998.1,N
1647730775.4,286047000.0,N
1647730795.2,286046998.6,N
